SCP
0 1 1 1 1 1 1 1 0 0 0 0 0 0 1 1 1 1 1 1 1 1 1 1 1 1 1 1 1 1 1 1 1 0 0 0 0 0 0 0 0 0 0
1 1 1 1 1 1 1 1 0 0 0 0 0 0 1 1 1 1 1 1 1 1 1 1 1 1 1 1 1 1 1 1 1 0 0 0 0 0 0 0 0 0 0
1 1 1 1 1 1 1 1 0 0 0 0 0 0 1 1 1 1 1 1 1 1 1 1 1 1 1 1 0 0 1 1 0 0 0 0 0 0 0 0 0 0 0
1 1 1 1 1 1 1 1 1 0 0 0 0 0 0 0 0 1 1 1 1 0 0 0 0 0 0 0 0 0 0 0 0 0 0 0 0 0 0 0 0 0 0
1 1 1 1 1 1 1 1 1 1 0 0 0 0 0 0 0 1 1 1 0 0 0 0 0 0 0 0 0 0 0 0 0 0 0 0 0 0 0 0 0 0 0
1 1 1 1 1 1 1 1 1 1 0 0 0 0 0 0 0 0 0 0 0 0 0 0 0 0 0 0 0 0 0 0 0 0 0 0 0 0 0 0 0 0 0
1 1 1 1 1 1 1 1 1 1 1 0 0 0 0 0 0 0 0 0 0 0 0 0 0 0 0 0 0 0 0 0 0 0 0 0 0 0 0 0 0 0 0
1 1 1 1 1 1 1 1 1 1 1 0 0 0 0 0 0 0 0 0 0 0 0 0 0 0 0 0 0 0 0 0 0 0 0 0 0 0 0 0 0 0 0
1 1 0 1 1 1 1 1 1 1 1 1 0 0 0 0 0 0 0 0 0 0 0 0 0 0 0 1 1 1 0 0 0 0 0 0 0 0 0 0 0 0 0
1 1 0 0 1 1 1 1 1 1 1 1 1 1 0 0 0 0 0 0 0 0 0 0 0 0 0 1 1 1 0 0 0 0 0 0 0 0 0 0 0 0 0
1 1 0 0 0 0 1 1 1 1 1 1 1 1 0 0 0 0 0 0 0 0 0 0 0 0 0 0 1 1 0 0 0 0 0 0 0 0 0 0 0 0 0
1 1 1 0 0 0 0 0 0 0 0 0 0 1 0 0 0 0 0 0 0 0 0 0 0 0 0 0 0 0 0 0 0 0 0 0 0 0 0 0 0 0 0
1 1 1 1 0 0 0 0 0 0 0 0 0 0 1 0 0 0 0 0 0 0 0 0 0 0 0 0 0 0 0 0 0 0 0 0 0 0 0 0 0 0 0
1 1 2 1 1 1 0 0 0 0 0 0 0 0 1 0 0 0 0 0 0 0 0 0 0 0 0 0 0 0 0 0 0 0 0 0 0 0 0 0 0 0 0
2 2 2 2 1 1 1 0 0 1 1 1 0 0 0 0 0 0 0 0 0 0 0 0 0 0 0 0 0 0 0 0 0 0 0 0 0 0 0 0 0 0 0
2 2 3 3 2 1 1 1 1 1 1 1 1 1 0 0 0 0 0 0 0 0 0 0 0 0 0 0 0 0 0 0 0 0 0 0 0 0 0 1 1 1 1
3 3 3 3 2 1 1 1 1 1 2 2 2 1 1 0 0 0 0 0 0 0 0 0 0 0 0 0 0 0 0 0 0 0 0 0 0 0 1 1 1 1 1
3 3 3 3 2 1 1 1 1 1 2 2 2 1 1 0 0 0 0 0 0 0 0 0 0 0 0 0 0 0 0 0 0 0 0 0 0 1 1 1 1 1 1
2 2 2 2 2 2 1 1 1 1 1 1 1 1 0 0 0 0 0 0 0 0 0 0 1 0 0 0 0 0 0 0 0 0 0 0 0 1 1 1 1 1 1
2 2 2 2 2 2 1 1 1 1 1 1 1 0 0 0 0 0 0 0 1 1 1 1 1 1 1 0 0 0 0 0 0 0 0 0 0 0 0 0 0 1 1
2 2 2 2 2 2 1 1 1 0 0 0 1 1 0 0 0 0 0 1 1 1 1 1 1 1 1 0 0 0 0 0 0 0 0 0 0 0 0 0 0 1 1
2 2 2 2 2 2 1 1 1 1 1 1 1 1 1 1 1 1 1 1 1 1 1 1 1 1 1 1 1 0 0 0 0 0 0 0 0 0 0 0 0 0 1
2 2 2 2 2 2 1 1 1 1 1 1 1 1 1 1 1 1 1 1 1 1 1 1 1 1 1 1 1 1 0 0 0 0 0 0 0 0 0 0 0 0 0
2 2 2 2 2 2 2 2 2 2 1 1 1 1 1 1 1 1 1 1 1 1 1 1 1 1 1 1 1 1 1 0 0 0 0 0 0 0 0 0 0 0 0
2 2 2 2 2 2 2 2 2 2 1 1 1 0 1 1 1 1 1 1 1 1 1 1 1 1 1 2 1 1 1 1 1 0 0 0 0 0 0 0 0 1 1
3 3 2 2 2 2 2 2 2 1 1 1 1 1 0 0 1 1 1 1 1 1 1 1 1 1 2 2 2 2 1 1 1 1 1 1 1 0 0 0 0 1 1
Wind_Speed
1 2 8 11 11 12 13 14 14 15 15 15 15 15 15 15 14 15 15 15 15 15 15 15 15 15 15 16 16 16 16 16 16 16 16 16 16 15 15 15 14 11 16
4 4 9 10 11 12 12 13 13 14 14 14 14 14 14 14 14 14 14 15 15 15 15 15 15 15 15 16 16 16 16 15 15 15 15 14 15 15 15 15 14 10 15
5 4 7 10 11 11 11 12 12 13 13 13 13 13 13 13 13 14 14 14 14 15 15 15 15 14 15 15 15 15 15 15 14 14 13 9 10 14 14 14 14 14 14
6 4 6 10 10 10 11 11 12 12 12 12 12 12 12 12 13 13 13 13 14 14 14 15 14 14 14 14 14 14 14 14 14 13 7 7 7 12 13 14 14 14 13
5 4 5 10 10 10 10 10 11 11 11 11 11 11 11 12 12 13 13 13 13 14 14 14 14 13 13 13 12 12 13 13 13 10 7 6 6 11 13 13 13 13 13
5 3 5 10 10 10 10 9 10 10 10 11 10 10 11 11 11 12 12 12 12 13 13 13 13 12 12 11 11 12 12 12 10 7 6 6 6 10 12 12 12 12 12
5 3 4 9 9 9 9 9 9 9 10 10 10 10 10 10 10 11 11 11 11 12 12 12 11 11 10 10 10 11 11 12 8 7 6 5 6 9 11 12 11 11 11
5 3 4 9 9 9 9 9 9 9 9 9 9 9 9 9 10 10 10 10 10 10 10 10 10 9 9 8 9 9 10 11 8 7 5 5 6 8 10 11 11 11 10
4 3 2 3 5 8 8 8 8 8 8 8 8 9 9 9 9 9 8 9 9 9 9 9 8 8 8 7 7 8 8 10 6 5 5 4 6 9 10 10 10 10 10
3 3 3 3 3 3 4 7 8 8 8 8 7 8 8 7 7 7 7 7 7 7 7 7 7 7 7 7 7 7 8 8 5 5 3 4 7 9 9 10 10 9 9
4 2 2 3 3 3 2 4 5 6 6 6 5 7 6 3 3 3 4 6 6 6 6 5 5 6 6 5 6 6 6 3 4 3 3 5 8 9 9 9 9 9 9
6 4 3 3 3 2 2 3 2 2 3 3 3 3 3 2 2 2 2 3 4 4 4 4 4 5 5 3 3 5 2 3 3 3 3 7 8 8 9 9 9 9 9
7 6 5 4 2 2 1 2 1 1 2 2 2 3 2 2 1 2 1 2 2 2 2 3 3 2 2 2 1 2 2 2 2 2 3 7 8 8 9 9 9 9 9
6 6 5 5 3 2 1 2 2 1 1 1 1 2 2 1 1 1 1 1 1 1 1 1 1 2 2 1 1 1 2 2 2 2 3 7 8 8 9 9 9 9 9
7 6 5 5 5 4 3 2 2 2 2 1 1 1 2 1 1 0 0 0 0 0 0 0 1 1 1 1 0 1 2 3 3 3 2 7 8 8 9 9 10 10 9
8 7 6 6 6 5 4 3 2 2 2 2 2 2 2 2 2 1 1 1 1 1 1 1 0 1 1 0 0 1 2 2 3 3 3 5 8 8 9 10 10 10 10
8 7 7 7 6 5 5 4 3 2 2 2 2 2 3 3 2 2 1 1 1 1 1 1 1 0 1 0 0 1 1 2 2 3 3 3 3 7 9 10 10 10 10
7 7 7 7 7 6 5 4 2 2 3 3 2 2 3 4 3 2 2 2 2 1 1 1 1 0 1 1 1 1 1 2 3 3 3 3 3 4 6 9 10 10 11
8 8 7 6 7 6 5 3 3 2 2 2 2 3 3 4 4 3 3 3 2 1 1 2 1 1 1 1 2 2 2 2 3 4 4 5 4 4 4 6 10 11 12
6 6 7 6 6 5 3 2 2 1 1 2 2 3 3 3 4 4 3 3 2 2 1 1 2 1 1 2 2 1 2 2 3 4 5 4 4 5 5 5 5 7 11
6 6 7 6 5 4 3 3 2 2 1 1 2 3 3 4 4 4 3 2 2 2 3 3 2 2 1 1 1 1 2 2 3 3 4 4 4 5 5 5 5 4 4
7 7 7 7 6 5 4 3 2 2 2 1 1 1 3 3 4 4 4 3 3 2 2 2 2 1 1 2 2 1 2 2 2 2 2 4 4 4 5 6 5 5 4
8 8 7 7 6 5 5 3 2 2 1 1 0 1 2 3 3 3 4 3 3 3 3 4 4 4 2 2 2 3 2 2 2 2 1 2 2 3 4 4 5 5 6
7 6 6 5 5 5 5 4 4 3 2 2 2 1 1 2 3 3 3 4 3 3 3 4 4 3 3 3 2 2 3 3 2 2 1 0 1 2 3 3 4 4 5
6 5 5 4 4 4 5 5 4 3 2 1 1 1 1 1 1 2 2 2 3 3 3 3 2 3 3 3 3 2 2 2 3 3 3 2 1 1 1 2 2 2 3
5 5 5 5 4 4 5 5 5 5 3 2 1 1 1 1 1 2 1 1 2 2 3 3 3 3 3 3 3 2 3 2 3 3 4 3 2 1 1 1 1 1 1
Wind_Direction
131 125 118 110 105 101 100 100 99 101 100 100 100 100 100 98 96 96 96 97 97 97 98 100 101 101 101 103 104 105 106 108 108 109 110 110 111 110 110 109 108 108 111
139 130 121 114 110 105 102 102 102 103 102 102 101 100 100 99 98 97 96 97 98 99 99 100 101 101 102 103 104 105 106 109 111 112 112 111 112 112 112 112 111 115 115
124 121 122 119 114 110 107 106 105 104 104 103 102 101 100 101 100 99 98 97 99 100 100 100 100 101 102 103 104 105 107 109 110 108 105 103 111 114 115 115 115 116 116
124 117 125 125 119 114 110 108 107 106 106 105 104 103 103 102 102 101 100 99 100 101 101 101 101 102 104 106 107 109 110 109 109 105 95 99 110 117 117 117 116 116 116
116 116 138 130 125 120 114 111 109 109 109 108 107 106 105 103 102 102 101 101 101 102 102 102 103 104 105 106 108 111 113 112 108 99 91 91 100 119 120 120 119 117 118
118 124 144 134 130 125 120 116 113 112 111 111 109 108 107 105 104 103 101 102 102 103 103 102 103 105 105 106 110 113 114 113 107 102 99 102 110 123 124 123 121 120 120
127 130 144 138 133 129 126 121 118 115 114 113 111 107 107 107 107 106 104 104 104 103 103 103 104 103 103 103 108 113 115 118 112 108 106 109 121 127 128 127 126 125 124
129 131 139 143 138 134 131 128 124 120 118 116 113 110 108 109 108 109 107 108 107 106 106 104 103 100 98 101 109 115 118 124 120 118 115 120 131 131 131 130 131 130 129
117 117 111 125 135 138 137 135 130 125 121 119 117 113 110 109 109 109 108 106 106 107 106 104 101 96 93 97 109 120 124 128 122 127 131 128 138 138 138 139 139 136 137
111 111 107 100 100 104 125 138 136 133 128 126 123 118 115 111 109 108 106 108 108 107 106 105 103 99 95 98 108 118 120 120 126 130 131 147 152 152 150 148 147 144 143
153 134 126 120 117 114 126 145 137 137 132 126 123 120 102 72 72 90 109 118 116 111 105 99 95 91 86 87 103 110 111 116 134 138 145 164 167 167 161 157 155 155 153
178 177 163 157 149 146 151 110 89 97 97 91 89 92 85 81 73 88 83 112 116 108 96 84 70 69 70 66 85 94 108 133 144 155 172 179 181 178 170 168 166 163 163
180 183 177 174 165 158 122 120 100 89 92 94 109 112 103 86 61 46 40 42 49 62 56 55 48 51 66 85 86 102 131 143 157 172 183 188 189 186 181 178 176 176 175
178 189 177 172 168 180 165 143 134 129 127 135 158 138 120 112 101 72 55 35 31 38 46 44 44 30 48 80 120 139 156 167 178 186 200 198 198 198 195 190 188 188 188
186 191 180 176 178 184 179 185 165 170 169 179 180 172 160 160 173 149 114 17 314 332 48 26 27 12 15 30 171 169 185 192 196 199 209 208 207 207 206 204 200 198 198
192 191 181 183 189 183 182 192 185 178 176 182 193 194 186 186 188 181 208 240 252 236 244 262 280 345 343 350 304 215 205 204 204 207 211 219 218 215 216 215 212 211 209
190 187 185 188 185 189 192 195 192 185 180 189 201 199 200 197 194 185 200 234 242 230 228 245 273 351 297 297 271 247 209 215 214 213 210 217 227 229 226 223 220 219 218
180 181 188 192 184 191 189 189 191 188 187 195 199 203 206 204 192 183 210 229 233 212 203 217 223 236 275 254 240 247 225 221 221 218 214 216 219 229 231 229 227 225 226
183 180 180 181 179 183 178 177 183 185 194 193 193 203 207 203 193 189 210 224 214 204 208 226 193 194 226 236 242 247 241 232 227 221 218 220 220 224 229 236 235 231 231
180 178 178 176 176 165 153 144 144 173 209 196 201 205 200 199 194 192 207 214 197 194 212 213 209 203 214 224 255 269 256 239 227 223 224 224 224 226 230 235 236 240 239
174 175 180 177 173 156 151 158 163 194 207 210 213 207 202 200 197 193 205 200 193 201 213 207 194 208 224 179 148 310 303 261 241 235 226 223 227 226 226 231 232 236 244
182 184 183 183 176 175 174 162 160 161 179 197 204 199 213 210 205 203 198 202 202 205 216 209 189 183 218 177 162 148 321 328 304 251 224 221 227 222 228 229 227 231 238
189 190 190 185 181 179 164 135 114 92 73 88 196 221 229 220 219 219 205 204 206 200 212 213 200 195 210 212 190 171 184 242 304 323 272 231 222 221 232 235 233 235 236
193 186 181 176 173 171 162 161 167 175 188 204 201 213 241 228 228 224 216 207 207 206 216 220 207 202 194 213 213 213 209 192 204 297 326 296 239 234 234 238 239 233 233
175 170 169 165 174 173 171 175 174 184 190 174 160 190 247 269 258 248 230 220 220 218 221 219 208 206 203 208 206 202 210 215 213 222 266 296 335 284 251 238 244 245 237
157 159 159 163 186 184 175 177 182 183 177 172 186 196 242 281 303 299 265 239 233 228 222 215 210 207 214 216 219 209 196 200 205 208 232 249 266 278 287 264 254 261 256